Theta_e
342 343 342 336 333 334 335 336 342 345 343 342 344 344 344 347 351 349 349 346 343 346 347 341 345 345 348 345 346 347 347 347 345 345 343 345 346 344 344 344 343 343 340
343 342 344 342 336 336 337 337 339 345 345 340 346 337 345 347 347 348 345 345 344 346 341 342 344 346 344 346 345 345 345 344 346 344 343 345 345 343 342 345 343 343 342
345 343 345 345 339 338 337 338 341 344 347 346 346 347 344 344 346 348 345 347 345 346 343 349 347 345 348 345 346 346 347 349 348 345 344 345 345 342 340 342 341 341 343
345 341 343 346 344 340 340 341 342 342 346 344 345 344 343 342 345 343 346 349 345 346 348 348 346 346 347 346 346 346 345 344 346 345 345 345 345 343 341 340 340 340 341
346 344 343 347 347 346 344 344 345 343 342 346 349 347 342 346 345 342 345 346 346 345 346 345 348 348 346 346 347 344 346 345 344 344 345 345 344 341 340 342 340 340 341
349 347 346 346 348 349 348 347 347 348 347 347 350 347 347 344 346 346 345 347 347 346 345 345 345 345 342 343 343 344 344 344 343 344 343 341 341 342 343 342 341 342 339
348 350 348 348 348 348 349 349 347 346 347 348 348 348 348 346 345 344 344 347 350 347 347 344 341 340 342 344 344 344 344 343 343 342 342 342 342 342 342 343 343 343 341
348 347 348 348 348 348 349 347 343 339 345 347 346 346 346 346 346 345 344 345 346 346 347 347 344 340 342 343 345 344 344 344 343 343 340 338 338 341 342 342 342 341 342
347 348 348 348 348 347 347 346 347 338 343 346 347 346 344 344 346 345 345 345 346 346 346 345 340 342 342 342 344 344 342 341 340 339 339 339 339 340 341 341 341 342 341
345 344 345 346 346 347 349 349 348 347 346 346 345 345 344 344 344 344 345 344 344 344 344 341 342 343 344 343 341 340 340 340 339 339 339 339 339 338 339 339 339 339 339
342 343 345 344 345 346 347 347 346 346 347 346 345 342 340 342 344 345 344 343 343 342 341 342 343 342 341 340 340 341 340 340 339 338 337 337 336 336 336 335 335 336 337
335 338 342 343 343 344 344 344 345 346 346 345 344 343 343 343 345 343 342 343 343 343 343 344 342 341 340 340 340 340 340 338 337 336 335 334 334 333 333 334 334 335 335
335 338 338 339 340 342 343 343 343 345 345 345 345 346 344 345 343 342 342 342 341 341 341 343 341 339 338 338 338 338 336 335 334 334 332 325 320 318 318 319 322 325 324
333 335 336 337 340 339 338 339 338 339 337 340 339 341 341 341 340 339 338 340 342 340 338 337 336 337 336 336 336 335 334 333 331 325 321 321 320 318 314 311 312 316 319
330 332 334 334 335 336 337 337 337 338 336 340 340 340 339 338 338 338 338 337 336 336 337 336 336 335 335 334 334 333 331 324 321 320 320 319 319 316 315 315 312 312 316
329 332 329 328 331 331 331 332 332 332 333 334 334 335 335 335 335 335 335 335 335 335 335 334 334 334 333 330 327 323 320 320 319 319 318 317 317 316 316 316 316 315 314
330 328 327 332 329 327 326 327 329 330 331 330 331 332 332 333 334 334 333 331 330 331 331 330 328 327 326 324 323 322 322 321 319 317 314 314 315 315 315 316 316 315 315
332 330 331 330 328 331 331 330 330 329 329 330 330 330 330 330 331 328 327 326 325 325 325 324 322 321 321 321 321 321 320 320 318 315 314 314 314 314 314 314 314 313 312
332 332 331 330 331 327 326 325 325 324 324 323 324 325 327 329 328 326 325 325 324 324 323 322 322 321 320 320 319 319 319 317 315 315 314 314 315 315 315 315 314 314 312
331 331 330 329 329 328 326 325 324 323 322 321 321 322 325 326 324 323 323 321 321 320 319 317 316 317 317 316 314 314 314 314 315 315 315 315 315 315 315 314 312 311 313
330 330 330 330 330 329 328 328 326 323 321 319 319 320 321 321 321 323 323 321 320 319 320 320 319 315 313 313 313 313 314 315 315 315 315 314 314 314 315 314 313 312 311
330 329 329 329 329 329 328 328 324 320 317 316 317 318 320 323 324 323 322 323 323 322 321 321 320 318 312 312 312 313 313 314 315 315 315 314 314 313 313 313 312 311 311
331 330 330 325 327 326 326 325 323 323 322 315 313 316 321 322 322 321 321 321 321 319 319 320 318 312 311 312 314 315 315 315 315 314 314 314 314 313 313 313 312 311 311
331 331 326 324 322 321 321 321 322 323 323 323 321 319 323 323 322 323 320 320 320 320 319 318 317 315 315 313 314 315 315 315 315 315 314 313 313 313 313 312 312 311 311
331 331 327 321 321 319 319 320 320 322 322 323 322 318 320 322 321 321 321 321 320 320 320 319 319 318 318 316 315 315 315 315 315 315 315 314 313 313 312 312 312 312 311
333 332 329 325 322 321 322 320 319 320 321 322 321 321 321 320 321 322 322 321 320 320 320 320 320 319 319 319 317 317 316 316 316 315 315 315 314 314 314 313 312 312 311
Wind_Speed
33 29 28 28 28 27 28 26 23 20 19 16 16 16 16 17 12 12 11 10 8 10 11 9 6 5 2 4 4 4 4 2 1 4 3 9 9 3 4 7 7 6 4
30 34 29 27 29 28 27 26 24 22 20 20 16 15 19 16 16 17 14 12 6 8 5 7 7 5 4 7 6 5 5 4 3 4 6 9 8 6 4 7 8 9 9
27 32 34 30 30 30 27 26 27 25 22 20 18 18 18 17 13 15 13 12 8 8 11 9 8 6 6 7 7 9 9 7 6 5 7 10 11 9 8 7 7 8 9
33 29 36 37 31 31 28 26 27 28 26 22 18 23 22 20 17 15 16 14 12 10 10 11 8 10 10 10 10 10 10 11 9 7 7 10 11 10 8 11 14 14 12
41 36 35 38 33 32 30 27 24 24 23 21 21 20 21 20 20 18 17 17 14 11 13 13 12 11 12 13 12 11 10 9 10 9 11 12 14 13 13 14 13 14 21
37 40 34 33 34 33 32 28 25 25 25 23 25 23 21 22 19 18 17 17 15 11 13 15 14 15 16 14 12 11 10 9 9 9 9 10 11 11 12 13 13 16 16
16 21 25 33 34 33 33 27 27 27 26 28 27 23 23 22 21 18 18 18 17 17 14 13 13 14 13 11 10 10 10 9 9 9 10 11 11 11 11 13 14 15 19
19 22 24 27 28 29 28 26 32 34 33 28 28 24 23 24 21 19 18 19 18 19 18 17 15 14 12 10 9 8 8 9 9 8 8 8 9 9 11 12 14 17 21
19 21 26 27 26 25 27 28 34 26 29 30 31 25 23 23 23 20 20 22 21 22 21 18 14 13 14 12 9 8 6 6 6 6 5 5 6 7 9 10 11 17 21
14 15 19 21 23 22 23 26 26 30 29 31 33 26 23 22 24 22 23 23 24 23 20 17 15 14 15 13 11 10 7 6 6 6 7 7 6 6 6 5 5 5 7
14 17 12 13 11 13 16 21 26 29 30 33 32 28 29 28 29 23 23 24 22 21 19 18 17 16 15 13 11 9 7 7 6 5 4 4 3 3 3 4 4 5 6
12 16 15 11 9 9 10 13 15 21 30 31 33 34 33 35 26 22 21 21 19 19 18 18 17 18 17 14 12 11 9 7 7 7 4 4 4 4 4 3 4 6 6
4 5 9 12 14 12 9 11 8 11 16 18 24 35 32 28 25 22 18 17 16 18 21 23 23 20 16 14 12 11 10 10 7 7 10 12 12 12 11 11 11 10 9
12 5 6 8 7 10 11 9 10 14 15 15 23 19 16 17 17 15 14 16 20 17 13 13 14 14 14 12 12 13 11 9 11 15 15 14 13 13 12 11 9 11 10
17 20 18 11 9 8 9 9 14 17 16 16 20 17 19 19 18 17 18 19 19 17 16 14 12 10 11 12 13 13 15 18 17 14 13 13 13 13 14 13 11 11 11
13 13 17 19 21 22 25 26 25 24 21 17 18 22 23 21 20 18 17 17 16 15 14 15 16 15 16 17 19 20 19 17 13 11 11 11 12 11 11 12 11 11 11
7 8 10 11 12 15 17 19 21 22 18 19 19 18 15 16 18 18 18 20 20 19 17 18 18 18 18 16 16 15 15 15 13 12 13 13 12 10 9 10 8 6 7
7 7 6 4 5 6 6 7 8 10 14 16 17 15 15 17 20 22 22 21 20 19 17 16 15 15 15 15 14 12 12 11 10 11 11 10 12 9 8 7 6 5 5
10 10 10 9 10 9 7 7 9 10 11 12 15 17 17 20 22 20 18 15 15 13 12 11 9 10 10 10 8 6 10 11 10 10 12 12 10 10 8 6 4 3 4
10 9 8 9 10 10 9 7 7 7 8 10 13 16 20 22 20 17 16 15 13 12 10 7 6 6 6 7 9 13 13 13 12 12 12 10 6 4 5 4 2 3 8
12 7 5 5 7 5 5 5 4 5 9 10 11 13 18 21 18 14 10 10 12 11 9 7 5 4 8 9 9 12 11 12 12 10 9 7 4 3 5 6 5 6 6
12 10 9 10 9 9 7 6 3 7 9 10 14 19 21 20 17 13 8 6 14 9 6 5 4 1 6 9 11 11 12 13 10 9 7 6 6 2 5 5 5 6 6
11 11 10 12 13 12 11 8 8 9 10 10 13 18 20 19 16 15 11 11 8 4 4 7 4 6 8 12 16 14 12 11 9 7 4 5 3 2 5 5 6 7 7
13 15 10 15 12 14 15 13 12 12 10 10 12 18 18 19 17 15 16 14 10 9 8 7 6 7 8 13 14 12 9 11 12 11 6 5 3 1 6 7 8 10 10
19 15 16 18 15 16 15 14 13 15 14 14 12 12 16 19 19 16 19 20 17 15 13 10 8 8 7 9 11 10 11 14 13 13 10 10 8 3 4 9 11 12 14
22 19 18 20 19 20 16 17 20 19 17 20 16 16 16 17 22 19 19 21 22 21 18 14 13 12 11 10 13 13 14 13 13 15 15 15 13 10 8 7 9 12 12
Wind_Direction
232 233 230 232 229 233 233 232 232 234 236 229 228 232 222 211 219 226 240 266 263 248 242 219 190 164 173 214 239 205 211 272 271 205 228 201 224 237 277 247 245 233 226
241 237 233 237 232 229 230 228 231 233 229 231 235 225 215 214 221 233 248 249 257 233 221 187 183 215 242 278 273 258 257 261 237 205 186 172 197 208 253 259 256 242 219
250 234 231 235 234 231 230 230 228 232 234 228 235 229 221 220 224 238 244 244 273 230 214 218 219 232 256 268 268 265 255 254 245 232 194 189 210 224 223 255 272 291 258
243 240 237 234 233 232 231 230 228 229 229 234 239 233 237 238 235 238 242 250 254 230 221 235 235 239 252 263 278 264 256 253 247 244 210 210 218 208 245 275 250 253 262
240 243 247 235 237 237 229 228 228 225 224 225 241 245 236 233 232 233 235 239 240 242 237 247 249 257 262 267 272 261 253 258 244 245 231 219 217 241 263 281 255 250 220
249 247 247 238 241 245 240 231 229 230 229 230 236 242 241 240 234 231 230 228 236 239 245 252 257 259 267 270 266 257 257 254 247 237 229 232 240 247 252 255 235 221 218
253 245 245 248 251 248 245 234 230 234 237 237 235 240 240 242 237 233 231 223 236 243 248 251 261 266 265 261 260 252 243 242 237 237 246 255 257 252 250 244 241 248 241
236 239 245 247 250 253 256 228 230 243 232 236 233 238 237 240 240 235 237 233 227 236 247 257 265 255 251 249 245 238 239 240 240 237 243 250 254 250 235 237 244 240 238
252 253 253 254 257 250 248 244 235 229 234 234 236 230 233 241 244 242 238 236 234 237 248 254 251 241 243 241 229 223 232 231 233 243 246 254 255 240 241 239 239 241 229
265 264 261 255 257 253 244 241 239 234 235 218 227 227 227 244 247 241 234 229 238 239 241 244 238 232 228 231 234 233 231 223 218 242 259 258 253 232 210 208 203 211 224
256 256 256 263 258 250 242 237 237 236 230 227 222 245 240 245 249 229 226 225 227 231 236 240 236 228 222 224 222 226 235 246 246 226 213 195 191 194 197 199 206 239 253
266 245 236 239 249 249 243 244 240 231 232 235 240 240 236 232 231 222 222 223 227 233 239 232 224 214 213 212 212 218 221 211 170 160 174 161 155 144 132 150 166 198 217
12 207 215 228 230 234 233 230 253 217 211 218 230 228 201 197 207 209 214 222 227 236 237 226 210 201 194 187 179 178 177 173 174 181 160 129 118 107 102 101 100 100 106
66 98 174 189 204 216 217 219 215 216 213 215 199 184 182 191 198 203 208 204 204 199 182 166 157 157 159 163 174 174 171 163 151 144 135 129 119 104 97 91 98 101 111
81 78 84 110 138 165 178 190 197 198 199 194 182 178 172 167 164 163 161 157 152 151 158 160 160 160 161 162 157 152 148 140 141 140 138 130 128 117 103 90 88 100 109
108 96 94 92 98 102 105 106 109 108 111 127 144 145 139 139 138 141 149 150 149 154 156 155 150 147 143 143 139 137 136 135 138 140 142 140 132 127 120 108 94 90 102
122 122 118 123 107 109 104 108 111 112 114 114 116 120 124 126 136 139 140 133 130 129 132 131 130 132 134 135 137 142 141 137 137 131 134 137 141 134 129 128 124 90 105
151 166 160 208 173 137 142 145 146 139 135 141 139 139 139 138 138 136 134 132 129 129 129 129 132 135 136 140 145 147 145 143 143 137 140 139 144 145 149 138 122 115 140
148 139 126 129 131 122 120 125 131 131 135 138 140 142 142 143 146 143 137 134 132 132 133 137 143 151 148 145 142 157 165 157 152 146 140 145 141 137 135 141 144 164 162
148 143 136 123 126 129 121 127 142 146 150 151 151 152 152 153 150 144 144 145 142 138 128 122 140 166 175 166 164 161 166 163 153 147 143 147 154 178 178 142 111 180 200
163 168 175 183 182 158 138 117 114 155 163 161 161 160 153 149 147 145 145 174 171 161 143 125 116 155 191 192 179 168 153 161 160 158 160 165 209 200 179 190 196 163 187
180 188 202 202 213 200 191 204 149 150 153 160 163 161 161 162 162 157 146 141 176 162 169 172 170 226 203 200 186 179 165 163 168 170 185 186 191 237 183 183 206 216 191
197 212 206 191 194 193 196 209 183 160 152 149 172 172 171 170 170 171 180 167 170 162 172 207 230 169 166 172 166 166 178 189 184 176 190 179 200 216 211 222 230 222 218
210 217 219 215 221 215 215 220 218 203 204 187 182 193 194 189 189 193 192 191 196 192 162 147 140 157 167 174 183 191 200 201 203 205 203 168 132 24 232 232 239 231 232
213 220 229 213 213 211 216 215 220 223 230 224 210 203 204 202 199 212 213 211 215 217 214 201 192 172 170 187 196 199 211 224 218 216 228 232 209 240 269 240 242 249 245
219 223 230 227 224 221 225 220 219 228 238 226 233 235 222 210 212 211 216 218 223 227 224 222 219 217 211 212 226 226 215 214 231 235 237 235 231 255 275 253 253 255 258